Location: Brevoort Houses
(40.6803°N, 73.9239°W)
Time: 00:58:38
(UTC+00:00)

Daily predictions for brighter satellites

Satellite Brightness Start Highest point End
(mag) Time Altitude Azimuth Time Altitude Azimuth Time Altitude Azimuth
Falcon 9 debris 4.2 00:00:22 10° NW 00:02:45 38° NNW 00:02:45 38° NNW
Cosmos 2297 3.6 00:01:05 10° SSW 00:06:46 81° ESE 00:10:57 19° NNE
Cosmos 1802 Rocket 4.0 00:03:46 10° N 00:10:09 62° E 00:12:26 39° SE
NOSS 3-2 (C) 3.3 00:05:14 10° SSW 00:10:56 90° WNW 00:14:30 27° NE
H-2A R/B 3.4 00:16:00 26° NNE 00:16:00 26° NNE 00:18:42 10° N
Lacrosse 5 1.7 00:10:32 10° NW 00:15:37 89° NE 00:15:57 79° SE
Cosmos 1939 Rocket 3.7 00:14:26 20° SSW 00:16:56 48° W 00:20:52 10° NNW
ADEOS Rocket 3.5 00:09:50 10° NNE 00:17:11 50° E 00:23:55 10° S
Cosmos 1000 Rocket 4.4 00:14:39 10° S 00:20:50 88° W 00:27:07 10° N
SL-24 R/B 4.4 00:17:40 10° NNE 00:23:23 86° ESE 00:28:08 10° SSW
Cosmos 1725 Rocket 4.4 00:19:26 10° N 00:24:15 45° NE 00:24:15 45° NE
Cosmos 1898 Rocket 3.8 00:22:13 10° NNW 00:26:31 56° N 00:26:31 56° N
Cosmos 2100 Rocket 4.1 00:23:52 10° NNW 00:30:01 72° W 00:36:06 10° S
MOS 1 4.2 00:30:44 59° S 00:31:53 83° WSW 00:37:33 10° NNW
ATLAS 3B R/B 2.5 00:33:42 10° SW 00:40:29 85° WNW 00:41:45 62° NNE
Cosmos 1833 Rocket 4.5 00:35:57 10° NW 00:40:42 29° WSW 00:45:25 10° SSW
SJ 16-02 3.6 00:37:37 10° NNW 00:38:36 16° N 00:38:36 16° N
Cosmos 2016 Rocket 4.0 00:42:08 10° N 00:48:27 81° W 00:48:33 81° WSW
CENTAUR R/B 2.6 00:43:16 10° SW 00:49:07 71° NW 00:49:56 63° N
Cosmos 2082 Rocket 4.2 01:05:27 10° NW 01:09:56 24° WSW 01:12:21 18° SW
Cosmos 2219 Rocket 4.4 07:42:35 18° NNE 07:42:35 18° NNE 07:44:02 10° NNE
Cosmos 2237 Rocket 3.9 07:53:13 30° E 07:53:13 30° E 07:57:02 10° NE
NOSS 3-4 (A) 4.4 08:00:43 41° E 08:00:43 41° E 08:05:21 10° NE
NOSS 3-4 (C) 4.4 08:00:46 42° E 08:00:46 42° E 08:05:27 10° NE
USA 234 4.3 07:55:52 10° E 08:01:45 37° NNE 08:02:55 35° N
ATLAS 3B R/B 3.7 08:09:50 28° N 08:12:39 41° NE 08:19:03 10° ESE
COSMOS 2428 4.3 08:17:10 25° N 08:17:10 25° N 08:19:31 10° NNE
CENTAUR R/B 3.6 08:16:32 22° NNW 08:22:01 57° NE 08:30:32 10° SE
ATLAS 2AS CENTAUR R/B 2.9 08:38:56 66° WNW 08:39:30 68° NW 08:47:33 10° NNE
MSX 4.4 08:37:41 10° NNE 08:43:18 54° E 08:48:52 10° S
IDEFIX/ARIANE 42P 2.7 08:39:03 10° NNE 08:43:43 69° NE 08:43:43 69° NE
NOSS 0 Rocket 3.9 08:45:28 71° NNW 08:45:28 71° NNW 08:51:15 10° NNE
USA 238 DEB 4.3 08:48:16 43° SSW 08:48:16 43° SSW 08:53:30 10° S
USA 238 4.3 08:48:18 43° SSW 08:48:18 43° SSW 08:53:37 10° S
SL-16 R/B 3.7 08:41:50 10° SSE 08:46:52 34° ESE 08:51:55 10° NE
Cosmos 2184 Rocket 4.0 08:49:47 15° S 08:55:05 81° E 09:01:23 10° N
Cosmos 2278 Rocket 2.0 08:58:12 76° W 08:58:23 77° WSW 09:04:01 10° SSE
Cosmos 407 Rocket 3.5 09:00:40 63° NNW 09:00:40 63° NNW 09:05:10 10° NNE
Cosmos 1190 Rocket 3.8 09:01:16 79° W 09:01:25 80° WNW 09:06:43 10° NNE
Milstar 3 4.5 08:59:03 16° SSW 09:02:04 21° SSE 09:06:56 10° ESE
Cosmos 2333 Rocket 3.7 09:09:15 22° NNW 09:09:15 22° NNW 09:12:07 10° N
NOSS 3-2 (A) 4.3 09:08:31 43° W 09:09:52 47° WSW 09:17:50 10° S
USA 267 3.7 09:05:42 10° NE 09:11:50 44° NNW 09:13:20 38° WNW
BREEZE-M DEB (TANK) 3.7 09:17:49 29° NNW 09:17:49 29° NNW 09:20:09 10° NE
Cosmos 1892 Rocket 4.4 09:15:14 10° SSE 09:19:30 50° E 09:23:47 10° NNE
SJ-6F 4.4 09:18:24 10° NNE 09:22:34 83° ESE 09:25:48 16° S
Cosmos 2219 Rocket 3.8 09:24:20 18° NNW 09:24:20 18° NNW 09:26:54 10° N
Meteor 1-4 Rocket 3.0 09:24:51 46° N 09:24:51 46° N 09:27:25 10° N
Cosmos 2074 Rocket 4.0 09:20:00 18° SSW 09:24:39 57° W 09:30:47 10° N
H-2A R/B 2.5 09:23:52 10° N 09:28:01 58° WNW 09:28:34 53° WSW
USA 32 4.4 09:31:08 40° W 09:31:22 41° W 09:36:18 10° N
Cosmos 1726 3.5 09:28:59 10° N 09:32:29 40° E 09:35:57 10° SSE
Cosmos 1606 Rocket 3.4 09:28:27 10° N 09:32:47 86° W 09:37:07 10° S
Milstar 3 Cent rocket 4.0 09:29:56 13° SSW 09:33:01 18° S 09:36:23 10° SE
In-Cosmos 22 4.3 09:28:31 10° S 09:33:49 74° E 09:39:18 10° NNE
NOSS 3-2 (C) 4.3 09:30:18 21° NW 09:35:23 47° WSW 09:43:24 10° S
Cosmos 2237 Rocket 2.7 09:35:06 34° WNW 09:35:59 36° WNW 09:41:14 10° N
Cosmos 1953 2.2 09:32:44 10° NNW 09:36:43 60° W 09:40:38 10° S
ADEOS 4.1 09:32:05 10° N 09:36:47 35° WNW 09:37:16 34° W
Cosmos 1140 Rocket 3.6 09:35:21 34° WSW 09:37:13 49° WNW 09:42:14 10° N
GP-B 3.7 09:33:34 10° SSE 09:37:55 58° E 09:42:17 10° N
Cosmos 1954 Rocket 3.9 09:34:05 17° SSW 09:38:09 67° WNW 09:43:22 10° NNE
Centaur D AC-29 4.4 09:28:51 23° W 09:38:54 33° SW 09:45:15 10° SSE
Cosmos 1707 3.7 09:42:28 29° NW 09:42:28 29° NW 09:45:01 10° N
Cosmos 44 4.0 09:42:57 28° SW 09:42:57 28° SW 09:45:56 10° S
USA 234 3.2 09:37:51 10° SE 09:44:23 79° SW 09:50:16 14° NW
CZ-4B R/B 2.6 09:40:59 10° N 09:44:56 78° WNW 09:48:40 10° SSW
Cosmos 1356 3.3 09:41:42 10° N 09:45:10 89° E 09:48:37 10° S
BREEZE-M DEB (TANK) 3.3 09:41:50 22° WSW 09:45:56 80° SSE 09:49:00 10° ENE
Meteor 1-31 Rocket 2.6 09:42:15 10° N 09:46:02 70° WNW 09:49:47 10° SSW
PAYLOAD A 4.1 09:43:54 10° N 09:48:36 48° WNW 09:53:26 10° SW
NOSS 3-4 (A) 4.2 09:48:12 25° W 09:50:28 33° NW 09:56:11 10° NNE
NOSS 3-4 (C) 4.2 09:48:15 26° W 09:50:33 33° NW 09:56:17 10° NNE
Cosmos 2369 Rocket 4.2 09:47:26 10° N 09:52:10 27° NE 09:56:52 10° ESE
Cosmos 1674 3.0 09:50:12 10° S 09:53:51 64° E 09:57:33 10° NNE
Cosmos 44 Rocket 3.3 09:54:39 10° NNW 09:59:23 80° ENE 10:04:04 10° SE
Okean 1-7 Rocket 3.6 09:55:41 10° SSW 10:00:02 55° W 10:04:28 10° N
Cosmos 1484 Rocket 2.9 09:57:59 10° NNE 10:01:48 75° E 10:05:40 10° S
COSMO-SKYMED 1 3.0 09:57:55 10° SSE 10:02:12 66° ENE 10:06:32 10° N
ATLAS 3B R/B 3.0 09:57:11 11° NW 10:03:20 43° WSW 10:09:45 10° S
Cosmos 2228 3.3 10:00:07 10° NNW 10:04:09 43° W 10:08:09 10° SSW
CZ-4B R/B 4.4 09:59:38 10° NNE 10:04:40 43° E 10:09:41 10° S
RESURS DK-1 3.2 10:08:32 19° WSW 10:10:45 30° WNW 10:14:26 10° N
PSLV R/B 2.5 10:10:40 27° W 10:11:54 86° S 10:14:33 10° E
CZ-2C R/B 3.0 10:07:10 10° N 10:11:55 37° WNW 10:16:35 10° SW
Cosmos 1726 Rocket 4.0 10:08:42 10° NNW 10:12:40 37° W 10:16:39 10° SSW
CENTAUR R/B 3.6 10:05:10 10° NW 10:12:41 39° WSW 10:20:31 10° S
SL-8 R/B 3.9 10:10:05 10° SW 10:14:51 71° SE 10:19:38 10° ENE
Helios 1A Rocket 3.5 10:10:47 10° NNE 10:14:55 64° E 10:19:02 10° S
Cosmos 1626 4.4 10:12:06 10° SSE 10:15:20 29° E 10:18:35 10° NNE
COBE Rocket 3.9 10:11:20 10° S 10:16:22 78° W 10:21:33 10° NNW
Cosmos 1943 Rocket 3.2 10:12:01 10° NNW 10:17:31 48° ENE 10:22:59 10° SE
Cosmos 1741 Rocket 4.0 10:15:09 10° SSW 10:20:27 72° WNW 10:25:48 10° NNE
Meteor 2-17 Rocket 4.4 10:16:55 10° SSW 10:22:56 66° W 10:28:59 10° N
METEOR-M 4.5 10:17:49 10° NNE 10:23:11 72° ESE 10:28:30 10° S
IDEFIX/ARIANE 42P 4.2 10:20:43 10° NNW 10:23:11 13° WNW 10:24:31 12° WNW
FENGYUN 3A 4.1 10:17:48 10° NNE 10:23:15 68° ESE 10:28:39 10° S
Cosmos 2218 Rocket 4.1 10:21:39 10° S 10:28:02 88° W 10:34:24 10° N
Cosmos 1602 Rocket 3.7 10:24:31 10° S 10:28:50 80° E 10:33:10 10° N
Cosmos 1763 Rocket 3.7 10:24:38 10° NNW 10:29:48 74° ENE 10:34:53 10° SSE
Cosmos 1603 4.0 10:24:57 10° SSW 10:30:32 72° ESE 10:36:11 10° NNE
SL-16 R/B 2.8 10:25:48 10° WSW 10:30:55 34° WNW 10:36:04 10° N
ATLAS 2AS CENTAUR R/B 4.3 10:26:24 11° WNW 10:32:04 22° NNW 10:38:02 10° NNE
Meteor 1-24 Rocket 3.8 10:27:00 10° SSW 10:32:44 78° W 10:38:43 10° N
SL-14 R/B 3.7 10:30:00 10° S 10:33:53 66° E 10:37:46 10° NNE
Centaur D AC-28 4.1 10:31:23 10° SW 10:35:38 33° SSE 10:48:51 10° ESE
Iridium 51 4.1 10:33:35 10° N 10:37:12 56° W 10:40:37 10° SSW
Okean O Rocket 1.6 10:32:49 10° N 10:37:14 83° WNW 10:41:36 10° SSW
Cosmos 2058 Rocket 3.8 10:33:55 10° NNW 10:37:49 31° W 10:41:44 10° SSW
SJ-12 4.0 10:33:59 10° N 10:37:59 53° WNW 10:41:59 10° SSW
NOAA 6 4.1 10:36:24 10° NNE 10:41:37 88° W 10:46:45 10° SSW
KORONAS-FOTON 4.4 10:39:44 10° SW 10:43:09 32° WNW 10:46:36 10° NNW
Cosmos 2297 4.5 10:40:37 10° NW 10:45:38 32° WSW 10:50:37 10° SSW
Cosmos 1437 Rocket 4.1 10:45:48 10° WSW 10:48:29 18° WNW 10:51:10 10° NNW
SKYMED 2 4.2 10:46:21 10° SSW 10:50:19 35° W 10:54:19 10° NNW
Cosmos 1727 Rocket 4.1 10:44:35 10° N 10:50:51 88° E 10:57:09 10° S
